INTELSAT 39 (IS-39)

Last updated on Thu Nov 21 2024 00:02:44 GMT+0000 (Coordinated Universal Time)

1 44476U 19049B 24324.02103549 .00000035 00000+0 00000+0 0 9993 2 44476 0.0150 300.6623 0000114 221.8110 325.6065 1.00272395 19358
UTC large
Height (km)
Speed (km/s)
/
Latitude / Longitude
Inclination (degrees)
Orbital Period (minutes)
Azimuth
Elevation
Range (km)
Doppler Factor

Next 0 passes for location: London (51.5072 / 0.1276)

Sorry there are no passes over London.